Simultaneous Nadir Overpasses (SNOs) Predictions

Prediction of SNOs between GOES-16 and NOAA-20 Satellite Orbit:

Table of predicted SNOs for the next 14.0 days since TLE Epoch: 6/15/2018
Index Date Time (GOES-16) GOES-16 Lat,Lon NOAA-20 Lat,Lon Distance(km) Time Diff (sec)
1 06/16/2018 06:22:34 -0.02, -75.21 -0.10, -74.89 36.66 80
2 06/18/2018 18:28:27 0.02, -75.24 -0.08, -75.67 48.80 80
3 06/19/2018 18:07:02 0.02, -75.25 0.91, -71.13 468.99 80
4 06/21/2018 06:31:31 -0.01, -75.28 0.22, -76.42 129.14 80
5 06/22/2018 06:10:07 -0.01, -75.30 -0.77, -71.88 389.04 80
6 06/23/2018 18:34:44 0.01, -75.33 -0.40, -77.19 212.35 80
7 06/24/2018 18:13:20 0.01, -75.35 0.60, -72.66 306.21 80
8 06/26/2018 06:37:49 -0.01, -75.39 0.54, -77.94 290.81 80
9 06/27/2018 06:16:25 -0.01, -75.41 -0.46, -73.41 227.99 80
10 06/28/2018 18:41:02 0.01, -75.45 -0.70, -78.72 372.54 80
11 06/29/2018 18:19:37 0.01, -75.48 0.29, -74.19 146.67 80




NCC Satellite Simultaneous Nadir Overpasses (SNOs) Prediction Service
